Location: Asheville, NC
(35.6000°N, 82.5500°W)
Time: 01:46:25
(UTC-05:00)

Vanguard 1 Rocket - Pass Details

Date: 10 February 2018
Orbit: 655 x 4222 km, 34.3° (Epoch: 20 February)

Event Time Altitude Azimuth Distance (km) Brightness Sun altitude
Rises 02:44:08 0° 251° (WSW) 8,166 - -55.8°
Reaches altitude 10° 02:49:30 10° 251° (WSW) 7,316 - -54.8°
Exits shadow 03:15:46 82° 182° (S) 3,829 10.1 -50.0°
Maximum altitude 03:16:10 82° 168° (SSE) 3,809 10.1 -49.9°
Drops below altitude 10° 03:34:18 10° 84° (E) 5,320 11.8 -46.5°
Sets 03:37:29 0° 84° (E) 5,964 12.3 -45.9°
